ANA273 RJTT-RJFF

Flight info

Callsign ANA273
Flight time 1h 30m
Altitude 32000
Route TIARA GUSRO Y20 KIRIN
Aircraft B738/M-SDE2E3FGHIRWXY/LB1

Departure

Time 2026-05-06 12:21
Airport Tokyo Haneda International Airport (RJTT)

Arrival

Time 2026-05-06 13:51
Airport Fukuoka Airport (RJFF)
Time Latitude Longitude Altitude Speed Heading
2026-05-06 11:58 35.55213 139.78915 32 ft 0 kts 240°
2026-05-06 12:07 35.55221 139.78932 31 ft 4 kts 239°
2026-05-06 12:08 35.55233 139.78957 29 ft 2 kts 239°
2026-05-06 12:08 35.55247 139.78978 32 ft 4 kts 205°
2026-05-06 12:08 35.55267 139.78983 31 ft 4 kts 164°
2026-05-06 12:08 35.55288 139.78972 29 ft 1 kts 150°
2026-05-06 12:09 35.55289 139.78972 29 ft 1 kts 150°
2026-05-06 12:11 35.55272 139.78984 31 ft 11 kts 149°
2026-05-06 12:11 35.55215 139.79044 32 ft 11 kts 105°
2026-05-06 12:11 35.55242 139.79130 31 ft 12 kts 59°
2026-05-06 12:12 35.55245 139.79223 31 ft 12 kts 131°
2026-05-06 12:12 35.55166 139.79283 30 ft 18 kts 149°
2026-05-06 12:12 35.55032 139.79378 31 ft 23 kts 150°
2026-05-06 12:12 35.54912 139.79463 32 ft 19 kts 150°
2026-05-06 12:13 35.54805 139.79538 32 ft 16 kts 150°
2026-05-06 12:13 35.54706 139.79609 28 ft 17 kts 150°
2026-05-06 12:13 35.54601 139.79684 28 ft 18 kts 150°
2026-05-06 12:13 35.54510 139.79748 27 ft 10 kts 150°
2026-05-06 12:14 35.54460 139.79784 26 ft 4 kts 150°
2026-05-06 12:14 35.54459 139.79785 26 ft 0 kts 150°
2026-05-06 12:16 35.54443 139.79796 32 ft 10 kts 150°
2026-05-06 12:17 35.54360 139.79855 27 ft 15 kts 150°
2026-05-06 12:17 35.54270 139.79918 25 ft 15 kts 150°
2026-05-06 12:17 35.54181 139.79981 26 ft 15 kts 150°
2026-05-06 12:17 35.54091 139.80045 27 ft 15 kts 150°
2026-05-06 12:18 35.53995 139.80114 26 ft 16 kts 150°
2026-05-06 12:18 35.53924 139.80164 28 ft 10 kts 150°
2026-05-06 12:18 35.53865 139.80211 26 ft 10 kts 130°
2026-05-06 12:18 35.53880 139.80292 29 ft 10 kts 60°
2026-05-06 12:19 35.53922 139.80382 34 ft 7 kts 59°
2026-05-06 12:19 35.53925 139.80387 34 ft 0 kts 59°
2026-05-06 12:19 35.53929 139.80396 35 ft 5 kts 59°
2026-05-06 12:20 35.53960 139.80459 37 ft 10 kts 59°
2026-05-06 12:20 35.54012 139.80483 38 ft 9 kts 329°
2026-05-06 12:20 35.54146 139.80388 34 ft 54 kts 330°
2026-05-06 12:20 35.54772 139.79941 36 ft 156 kts 330°
2026-05-06 12:21 35.55849 139.79173 839 ft 188 kts 329°
2026-05-06 12:21 35.57051 139.78366 2044 ft 207 kts 332°
2026-05-06 12:21 35.58551 139.78054 2507 ft 242 kts
2026-05-06 12:21 35.60000 139.79136 3176 ft 253 kts 51°
2026-05-06 12:22 35.60770 139.81068 3876 ft 254 kts 72°
2026-05-06 12:22 35.61400 139.83136 4598 ft 259 kts 75°
2026-05-06 12:22 35.61517 139.85394 5036 ft 271 kts 103°
2026-05-06 12:22 35.61220 139.87722 5850 ft 280 kts 100°
2026-05-06 12:23 35.61052 139.90145 6760 ft 289 kts 96°
2026-05-06 12:23 35.61126 139.92595 7546 ft 298 kts 77°
2026-05-06 12:23 35.62147 139.94842 8413 ft 308 kts 44°
2026-05-06 12:23 35.63957 139.96187 9354 ft 304 kts 11°
2026-05-06 12:24 35.66022 139.96478 10105 ft 300 kts 356°
2026-05-06 12:24 35.68184 139.96558 10528 ft 323 kts 354°
2026-05-06 12:24 35.70425 139.95969 10800 ft 336 kts 327°
2026-05-06 12:24 35.72132 139.94069 11758 ft 334 kts 299°
2026-05-06 12:25 35.72906 139.91406 13007 ft 331 kts 275°
2026-05-06 12:25 35.72885 139.88571 14208 ft 333 kts 264°
2026-05-06 12:25 35.72679 139.85738 15220 ft 341 kts 263°
2026-05-06 12:25 35.72430 139.82767 16391 ft 346 kts 263°
2026-05-06 12:26 35.72169 139.79835 17561 ft 351 kts 263°
2026-05-06 12:26 35.71898 139.76838 18729 ft 354 kts 263°
2026-05-06 12:26 35.71625 139.73823 19603 ft 355 kts 263°
2026-05-06 12:26 35.71354 139.70806 20088 ft 356 kts 262°
2026-05-06 12:27 35.71080 139.67754 20139 ft 357 kts 262°
2026-05-06 12:27 35.70810 139.64720 20142 ft 356 kts 262°
2026-05-06 12:27 35.70541 139.61697 20151 ft 356 kts 262°
2026-05-06 12:27 35.70275 139.58703 20178 ft 356 kts 262°
2026-05-06 12:28 35.70006 139.55679 20177 ft 356 kts 262°
2026-05-06 12:28 35.69736 139.52651 20177 ft 356 kts 262°
2026-05-06 12:28 35.69465 139.49617 20185 ft 356 kts 262°
2026-05-06 12:28 35.69194 139.46587 20182 ft 356 kts 262°
2026-05-06 12:29 35.68920 139.43543 20190 ft 356 kts 262°
2026-05-06 12:29 35.68648 139.40520 20189 ft 356 kts 262°
2026-05-06 12:29 35.68373 139.37471 20185 ft 356 kts 262°
2026-05-06 12:29 35.68102 139.34481 20182 ft 356 kts 262°
2026-05-06 12:30 35.67827 139.31456 20188 ft 356 kts 262°
2026-05-06 12:30 35.67548 139.28396 20186 ft 356 kts 262°
2026-05-06 12:30 35.67274 139.25399 20187 ft 356 kts 262°
2026-05-06 12:30 35.66995 139.22340 20186 ft 356 kts 262°
2026-05-06 12:31 35.66721 139.19359 20184 ft 356 kts 262°
2026-05-06 12:31 35.66441 139.16329 20180 ft 356 kts 262°
2026-05-06 12:31 35.66178 139.13303 20185 ft 357 kts 264°
2026-05-06 12:31 35.66019 139.10247 20186 ft 357 kts 265°
2026-05-06 12:32 35.65888 139.07193 20182 ft 358 kts 265°
2026-05-06 12:32 35.65763 139.04127 20181 ft 358 kts 265°
2026-05-06 12:32 35.65637 139.01073 20188 ft 357 kts 265°
2026-05-06 12:32 35.65507 138.98024 20192 ft 358 kts 265°
2026-05-06 12:33 35.65375 138.94976 20187 ft 358 kts 265°
2026-05-06 12:33 35.65241 138.91912 20179 ft 357 kts 265°
2026-05-06 12:33 35.65106 138.88903 20195 ft 357 kts 265°
2026-05-06 12:33 35.64968 138.85859 20186 ft 357 kts 265°
2026-05-06 12:34 35.64829 138.82806 20200 ft 356 kts 265°
2026-05-06 12:34 35.64691 138.79770 20188 ft 357 kts 265°
2026-05-06 12:34 35.64551 138.76724 20192 ft 356 kts 265°
2026-05-06 12:34 35.64409 138.73678 20188 ft 356 kts 265°
2026-05-06 12:35 35.64269 138.70644 20192 ft 356 kts 265°
2026-05-06 12:35 35.64127 138.67591 20189 ft 356 kts 265°
2026-05-06 12:35 35.63979 138.64553 20187 ft 356 kts 265°
2026-05-06 12:35 35.63822 138.61505 20178 ft 357 kts 265°
2026-05-06 12:36 35.63663 138.58463 20182 ft 357 kts 265°
2026-05-06 12:36 35.63503 138.55425 20184 ft 357 kts 265°
2026-05-06 12:36 35.63342 138.52368 20187 ft 357 kts 265°
2026-05-06 12:36 35.63181 138.49324 20187 ft 358 kts 265°
2026-05-06 12:37 35.63020 138.46275 20184 ft 358 kts 265°
2026-05-06 12:37 35.62860 138.43244 20184 ft 358 kts 265°
2026-05-06 12:37 35.62699 138.40196 20176 ft 358 kts 265°
2026-05-06 12:37 35.62536 138.37139 20179 ft 359 kts 265°
2026-05-06 12:38 35.62370 138.34071 20187 ft 360 kts 265°
2026-05-06 12:38 35.62204 138.31004 20191 ft 361 kts 265°
2026-05-06 12:38 35.62037 138.27919 20178 ft 361 kts 265°
2026-05-06 12:38 35.61870 138.24840 20191 ft 361 kts 265°
2026-05-06 12:39 35.61701 138.21750 20191 ft 361 kts 265°
2026-05-06 12:39 35.61530 138.18661 20189 ft 362 kts 265°
2026-05-06 12:39 35.61359 138.15579 20178 ft 362 kts 265°
2026-05-06 12:39 35.61187 138.12492 20176 ft 361 kts 265°
2026-05-06 12:40 35.61015 138.09412 20174 ft 360 kts 265°
2026-05-06 12:40 35.60844 138.06343 20177 ft 360 kts 265°
2026-05-06 12:40 35.60669 138.03278 20178 ft 360 kts 265°
2026-05-06 12:40 35.60496 138.00244 20179 ft 360 kts 265°
2026-05-06 12:41 35.60320 137.97180 20176 ft 359 kts 265°
2026-05-06 12:41 35.60145 137.94111 20180 ft 359 kts 265°
2026-05-06 12:41 35.59969 137.91041 20171 ft 359 kts 265°
2026-05-06 12:41 35.59793 137.87978 20166 ft 359 kts 265°
2026-05-06 12:42 35.59615 137.84910 20173 ft 359 kts 265°
2026-05-06 12:42 35.59437 137.81854 20181 ft 360 kts 265°
2026-05-06 12:42 35.59256 137.78811 20178 ft 362 kts 264°
2026-05-06 12:42 35.59038 137.75717 20171 ft 363 kts 264°
2026-05-06 12:43 35.58803 137.72635 20174 ft 364 kts 264°
2026-05-06 12:43 35.58564 137.69534 20170 ft 364 kts 264°
2026-05-06 12:43 35.58326 137.66433 20172 ft 365 kts 264°
2026-05-06 12:43 35.58090 137.63319 20170 ft 365 kts 264°
2026-05-06 12:44 35.57855 137.60209 20163 ft 365 kts 264°
2026-05-06 12:44 35.57620 137.57112 20155 ft 365 kts 264°
2026-05-06 12:44 35.57366 137.54008 20156 ft 364 kts 262°
2026-05-06 12:44 35.56912 137.50940 20153 ft 363 kts 256°
2026-05-06 12:45 35.56264 137.47952 20156 ft 362 kts 255°
2026-05-06 12:45 35.55603 137.44968 20164 ft 362 kts 255°
2026-05-06 12:45 35.54294 137.39022 20156 ft 362 kts 255°
2026-05-06 12:46 35.53638 137.36023 20148 ft 364 kts 255°
2026-05-06 12:46 35.52983 137.33022 20148 ft 364 kts 255°
2026-05-06 12:46 35.52328 137.30013 20147 ft 365 kts 255°
2026-05-06 12:46 35.51671 137.26998 20138 ft 365 kts 255°
2026-05-06 12:47 35.51017 137.24013 20144 ft 366 kts 255°
2026-05-06 12:47 35.50350 137.20997 20143 ft 366 kts 255°
2026-05-06 12:47 35.49680 137.17978 20144 ft 366 kts 255°
2026-05-06 12:47 35.49011 137.14968 20140 ft 367 kts 255°
2026-05-06 12:48 35.48334 137.11932 20140 ft 367 kts 255°
2026-05-06 12:48 35.47662 137.08911 20135 ft 367 kts 255°
2026-05-06 12:48 35.46998 137.05931 20130 ft 367 kts 255°
2026-05-06 12:48 35.46324 137.02909 20130 ft 366 kts 255°
2026-05-06 12:49 35.45651 136.99897 20130 ft 365 kts 255°
2026-05-06 12:49 35.44979 136.96886 20133 ft 365 kts 255°
2026-05-06 12:49 35.44306 136.93882 20131 ft 365 kts 255°
2026-05-06 12:49 35.43632 136.90873 20131 ft 365 kts 255°
2026-05-06 12:50 35.43187 136.88886 20133 ft 366 kts 255°
2026-05-06 12:50 35.42512 136.85882 20131 ft 366 kts 255°
2026-05-06 12:50 35.41605 136.81852 20125 ft 366 kts 255°
2026-05-06 12:50 35.40929 136.78848 20128 ft 366 kts 255°
2026-05-06 12:51 35.40480 136.76855 20129 ft 366 kts 255°
2026-05-06 12:51 35.39795 136.73821 20675 ft 372 kts 255°
2026-05-06 12:51 35.39102 136.70755 21757 ft 373 kts 255°
2026-05-06 12:51 35.38408 136.67688 22843 ft 375 kts 255°
2026-05-06 12:52 35.37706 136.64589 23846 ft 379 kts 255°
2026-05-06 12:52 35.36997 136.61462 24718 ft 382 kts 255°
2026-05-06 12:52 35.36284 136.58324 25759 ft 381 kts 255°
2026-05-06 12:52 35.35577 136.55215 26927 ft 375 kts 254°
2026-05-06 12:53 35.34889 136.52192 28422 ft 361 kts 253°
2026-05-06 12:53 35.34231 136.49296 30106 ft 344 kts 253°
2026-05-06 12:53 35.33601 136.46535 31144 ft 340 kts 252°
2026-05-06 12:53 35.32955 136.43714 31828 ft 341 kts 252°
2026-05-06 12:54 35.32321 136.40945 32126 ft 334 kts 252°
2026-05-06 12:54 35.31061 136.35438 32121 ft 338 kts 252°
2026-05-06 12:55 35.29797 136.29922 32119 ft 338 kts 252°
2026-05-06 12:55 35.28529 136.24389 32118 ft 337 kts 252°
2026-05-06 12:56 35.27262 136.18875 32126 ft 336 kts 252°
2026-05-06 12:56 35.25991 136.13358 32130 ft 337 kts 252°
2026-05-06 12:57 35.24715 136.07833 32124 ft 338 kts 252°
2026-05-06 12:57 35.23439 136.02321 32128 ft 339 kts 252°
2026-05-06 12:58 35.22150 135.96762 32127 ft 340 kts 252°
2026-05-06 12:58 35.20855 135.91190 32111 ft 341 kts 252°
2026-05-06 12:59 35.19557 135.85611 32137 ft 341 kts 252°
2026-05-06 12:59 35.18259 135.80014 32105 ft 343 kts 253°
2026-05-06 13:00 35.17248 135.74293 32127 ft 345 kts 256°
2026-05-06 13:00 35.16290 135.68539 32122 ft 346 kts 256°
2026-05-06 13:01 35.15322 135.62777 32117 ft 347 kts 256°
2026-05-06 13:01 35.14351 135.57041 32119 ft 347 kts 256°
2026-05-06 13:02 35.13364 135.51236 32102 ft 349 kts 256°
2026-05-06 13:02 35.12372 135.45423 32101 ft 351 kts 257°
2026-05-06 13:03 35.11370 135.39569 32111 ft 352 kts 256°
2026-05-06 13:03 35.10363 135.33699 32110 ft 354 kts 257°
2026-05-06 13:04 35.09354 135.27840 32100 ft 356 kts 257°
2026-05-06 13:04 35.08340 135.21910 32117 ft 358 kts 257°
2026-05-06 13:05 35.07321 135.15950 32102 ft 360 kts 257°
2026-05-06 13:05 35.06295 135.09971 32118 ft 361 kts 257°
2026-05-06 13:06 35.05263 135.03967 32101 ft 362 kts 257°
2026-05-06 13:06 35.04222 134.97926 32114 ft 364 kts 257°
2026-05-06 13:07 35.03180 134.91917 32109 ft 365 kts 257°
2026-05-06 13:07 35.02127 134.85952 32113 ft 366 kts 257°
2026-05-06 13:08 35.01047 134.79863 32107 ft 367 kts 257°
2026-05-06 13:08 34.99969 134.73790 32114 ft 369 kts 258°
2026-05-06 13:09 34.98873 134.67668 32120 ft 371 kts 257°
2026-05-06 13:09 34.97673 134.61532 32127 ft 373 kts 257°
2026-05-06 13:10 34.96439 134.55349 32125 ft 377 kts 257°
2026-05-06 13:10 34.95199 134.49115 32129 ft 379 kts 257°
2026-05-06 13:11 34.93954 134.42848 32128 ft 381 kts 257°
2026-05-06 13:11 34.92702 134.36555 32131 ft 383 kts 257°
2026-05-06 13:12 34.91445 134.30245 32128 ft 384 kts 257°
2026-05-06 13:12 34.90180 134.23921 32130 ft 385 kts 258°
2026-05-06 13:13 34.88909 134.17587 32119 ft 386 kts 258°
2026-05-06 13:13 34.87636 134.11257 32118 ft 387 kts 258°
2026-05-06 13:14 34.86347 134.04862 32105 ft 389 kts 258°
2026-05-06 13:14 34.85051 133.98455 32105 ft 390 kts 258°
2026-05-06 13:15 34.83757 133.92075 32102 ft 391 kts 258°
2026-05-06 13:15 34.82451 133.85652 32101 ft 391 kts 258°
2026-05-06 13:16 34.81108 133.79216 32099 ft 392 kts 258°
2026-05-06 13:16 34.79742 133.72778 32111 ft 392 kts 258°
2026-05-06 13:17 34.78375 133.66337 32107 ft 394 kts 258°
2026-05-06 13:17 34.77004 133.59878 32111 ft 395 kts 258°
2026-05-06 13:18 34.75627 133.53405 32113 ft 396 kts 258°
2026-05-06 13:18 34.74252 133.46960 32118 ft 396 kts 258°
2026-05-06 13:19 34.72863 133.40465 32115 ft 397 kts 258°
2026-05-06 13:19 34.71467 133.33961 32122 ft 397 kts 258°
2026-05-06 13:20 34.70071 133.27472 32117 ft 398 kts 258°
2026-05-06 13:20 34.68665 133.20955 32117 ft 398 kts 258°
2026-05-06 13:21 34.67266 133.14488 32118 ft 398 kts 258°
2026-05-06 13:21 34.65854 133.07976 32118 ft 399 kts 258°
2026-05-06 13:22 34.64435 133.01453 32123 ft 399 kts 258°
2026-05-06 13:22 34.63011 132.94924 32124 ft 400 kts 258°
2026-05-06 13:23 34.61581 132.88390 32123 ft 401 kts 258°
2026-05-06 13:23 34.60155 132.81889 32123 ft 401 kts 258°
2026-05-06 13:24 34.58717 132.75353 32120 ft 401 kts 258°
2026-05-06 13:24 34.57274 132.68807 32116 ft 402 kts 258°
2026-05-06 13:25 34.55826 132.62263 32111 ft 401 kts 258°
2026-05-06 13:25 34.54376 132.55724 32113 ft 401 kts 258°
2026-05-06 13:26 34.52921 132.49177 32108 ft 402 kts 258°
2026-05-06 13:26 34.51464 132.42641 32107 ft 402 kts 257°
2026-05-06 13:27 34.50026 132.36129 32092 ft 402 kts 258°
2026-05-06 13:27 34.48582 132.29570 32111 ft 402 kts 258°
2026-05-06 13:28 34.47135 132.23019 32109 ft 403 kts 258°
2026-05-06 13:28 34.45679 132.16468 32108 ft 403 kts 257°
2026-05-06 13:29 34.44227 132.10086 32108 ft 403 kts 257°
2026-05-06 13:29 34.42725 132.03533 32100 ft 404 kts 257°
2026-05-06 13:30 34.41235 131.97035 32102 ft 403 kts 257°
2026-05-06 13:30 34.39733 131.90484 31644 ft 409 kts 257°
2026-05-06 13:30 34.38975 131.87189 31196 ft 406 kts 257°
2026-05-06 13:31 34.38216 131.83893 30745 ft 404 kts 257°
2026-05-06 13:31 34.37464 131.80634 30319 ft 401 kts 257°
2026-05-06 13:31 34.36716 131.77394 29822 ft 399 kts 257°
2026-05-06 13:31 34.35969 131.74162 29277 ft 397 kts 257°
2026-05-06 13:32 34.35230 131.70965 28755 ft 394 kts 257°
2026-05-06 13:32 34.34490 131.67772 28249 ft 391 kts 257°
2026-05-06 13:32 34.33761 131.64631 27758 ft 388 kts 257°
2026-05-06 13:32 34.33033 131.61489 27283 ft 385 kts 257°
2026-05-06 13:33 34.32315 131.58375 26781 ft 383 kts 257°
2026-05-06 13:33 34.31602 131.55280 26306 ft 381 kts 257°
2026-05-06 13:33 34.30890 131.52189 25821 ft 379 kts 257°
2026-05-06 13:33 34.30184 131.49128 25368 ft 377 kts 257°
2026-05-06 13:34 34.29488 131.46118 24888 ft 376 kts 257°
2026-05-06 13:34 34.28785 131.43082 24415 ft 374 kts 256°
2026-05-06 13:34 34.28081 131.40043 23946 ft 373 kts 256°
2026-05-06 13:34 34.27381 131.37025 23445 ft 372 kts 256°
2026-05-06 13:35 34.26682 131.34018 22926 ft 370 kts 256°
2026-05-06 13:35 34.25991 131.31043 22434 ft 368 kts 256°
2026-05-06 13:35 34.25297 131.28066 21968 ft 365 kts 256°
2026-05-06 13:35 34.24612 131.25126 21488 ft 363 kts 256°
2026-05-06 13:36 34.24155 131.23168 21184 ft 362 kts 256°
2026-05-06 13:36 34.23472 131.20245 20700 ft 361 kts 256°
2026-05-06 13:36 34.22570 131.16388 20065 ft 360 kts 256°
2026-05-06 13:36 34.22112 131.14429 19733 ft 359 kts 256°
2026-05-06 13:37 34.21207 131.10567 19096 ft 359 kts 256°
2026-05-06 13:37 34.20747 131.08607 18742 ft 359 kts 256°
2026-05-06 13:37 34.20064 131.05699 18228 ft 360 kts 256°
2026-05-06 13:37 34.19378 131.02784 17668 ft 359 kts 255°
2026-05-06 13:38 34.18591 130.99944 17156 ft 359 kts 249°
2026-05-06 13:38 34.17603 130.97173 16630 ft 358 kts 248°
2026-05-06 13:38 34.16590 130.94423 16124 ft 356 kts 247°
2026-05-06 13:38 34.15606 130.91731 15607 ft 355 kts 248°
2026-05-06 13:39 34.14621 130.88997 15103 ft 354 kts 248°
2026-05-06 13:39 34.13647 130.86267 14588 ft 353 kts 248°
2026-05-06 13:39 34.12679 130.83551 14056 ft 352 kts 247°
2026-05-06 13:39 34.11553 130.80932 13486 ft 352 kts 237°
2026-05-06 13:40 34.10079 130.78577 12954 ft 350 kts 233°
2026-05-06 13:40 34.08596 130.76272 12436 ft 347 kts 233°
2026-05-06 13:40 34.07129 130.73968 11936 ft 344 kts 233°
2026-05-06 13:40 34.05698 130.71701 11413 ft 328 kts 233°
2026-05-06 13:41 34.04384 130.69610 10929 ft 297 kts 233°
2026-05-06 13:41 34.03184 130.67692 10507 ft 283 kts 233°
2026-05-06 13:41 34.01996 130.65788 10180 ft 282 kts 234°
2026-05-06 13:41 34.00830 130.63918 10013 ft 275 kts 234°
2026-05-06 13:42 33.99693 130.62096 9612 ft 276 kts 234°
2026-05-06 13:42 33.98540 130.60246 9233 ft 276 kts 233°
2026-05-06 13:42 33.97386 130.58397 8849 ft 276 kts 233°
2026-05-06 13:42 33.96232 130.56547 8468 ft 276 kts 233°
2026-05-06 13:43 33.95075 130.54695 8095 ft 276 kts 233°
2026-05-06 13:43 33.93924 130.52852 7736 ft 276 kts 233°
2026-05-06 13:43 33.92773 130.51011 7373 ft 275 kts 233°
2026-05-06 13:43 33.91623 130.49173 6991 ft 267 kts 233°
2026-05-06 13:44 33.90547 130.47454 6655 ft 254 kts 233°
2026-05-06 13:44 33.89481 130.45751 6314 ft 255 kts 233°
2026-05-06 13:44 33.88416 130.44049 5962 ft 255 kts 233°
2026-05-06 13:44 33.87343 130.42337 5616 ft 256 kts 232°
2026-05-06 13:45 33.86280 130.40640 5269 ft 256 kts 232°
2026-05-06 13:45 33.84130 130.37213 4569 ft 256 kts 232°
2026-05-06 13:45 33.83054 130.35500 4215 ft 256 kts 232°
2026-05-06 13:46 33.81979 130.33790 3868 ft 256 kts 232°
2026-05-06 13:46 33.80701 130.32391 3590 ft 244 kts 206°
2026-05-06 13:46 33.79096 130.31938 3489 ft 235 kts 181°
2026-05-06 13:46 33.77524 130.32206 3382 ft 228 kts 161°
2026-05-06 13:47 33.76129 130.33003 3286 ft 217 kts 152°
2026-05-06 13:47 33.74848 130.33889 3204 ft 207 kts 150°
2026-05-06 13:47 33.73628 130.34740 3132 ft 199 kts 150°
2026-05-06 13:47 33.72421 130.35575 2886 ft 200 kts 150°
2026-05-06 13:48 33.71213 130.36408 2619 ft 200 kts 150°
2026-05-06 13:48 33.70026 130.37225 2348 ft 193 kts 150°
2026-05-06 13:48 33.68915 130.37989 2106 ft 176 kts 150°
2026-05-06 13:48 33.67895 130.38689 1862 ft 164 kts 150°
2026-05-06 13:49 33.66942 130.39345 1657 ft 152 kts 150°
2026-05-06 13:49 33.66064 130.39948 1460 ft 139 kts 150°
2026-05-06 13:49 33.65230 130.40520 1305 ft 138 kts 150°
2026-05-06 13:49 33.64399 130.41088 1132 ft 138 kts 150°
2026-05-06 13:50 33.63566 130.41654 943 ft 138 kts 150°
2026-05-06 13:50 33.62733 130.42226 743 ft 137 kts 149°
2026-05-06 13:50 33.61921 130.42786 571 ft 137 kts 149°
2026-05-06 13:50 33.61096 130.43352 384 ft 136 kts 148°
2026-05-06 13:51 33.60279 130.43917 219 ft 135 kts 148°
2026-05-06 13:51 33.59460 130.44473 44 ft 135 kts 148°
2026-05-06 13:51 33.58727 130.44977 36 ft 102 kts 150°
2026-05-06 13:51 33.58270 130.45287 39 ft 49 kts 150°
2026-05-06 13:52 33.58139 130.45415 40 ft 21 kts 128°
2026-05-06 13:52 33.58073 130.45537 40 ft 12 kts 120°
2026-05-06 13:52 33.58111 130.45610 39 ft 12 kts
2026-05-06 13:52 33.58191 130.45567 38 ft 13 kts 330°
2026-05-06 13:53 33.58280 130.45507 37 ft 19 kts 330°
2026-05-06 13:53 33.58418 130.45413 35 ft 26 kts 330°
2026-05-06 13:53 33.58572 130.45307 31 ft 24 kts 330°
2026-05-06 13:53 33.58717 130.45208 31 ft 24 kts 330°
2026-05-06 13:54 33.58864 130.45109 31 ft 24 kts 330°
2026-05-06 13:54 33.59009 130.45010 30 ft 24 kts 330°
2026-05-06 13:54 33.59155 130.44910 30 ft 24 kts 330°
2026-05-06 13:54 33.59245 130.44856 29 ft 12 kts 354°
2026-05-06 13:55 33.59334 130.44853 29 ft 14 kts 356°
2026-05-06 13:55 33.59430 130.44821 29 ft 14 kts 329°
2026-05-06 13:55 33.59517 130.44762 29 ft 14 kts 330°
2026-05-06 13:55 33.59605 130.44702 29 ft 14 kts 330°
2026-05-06 13:56 33.59679 130.44651 29 ft 7 kts 330°
2026-05-06 13:56 33.59720 130.44623 29 ft 7 kts 330°
2026-05-06 13:56 33.59759 130.44629 29 ft 7 kts 59°
2026-05-06 13:56 33.59780 130.44673 29 ft 4 kts 60°
2026-05-06 13:57 33.59788 130.44690 29 ft 1 kts 60°
2026-05-06 13:57 33.59789 130.44692 29 ft 0 kts 60°